Location: Haliburton Scout Reserve
(45.0900°N, 78.3200°W)
Time: 18:05:53
(UTC-05:00)

Courier 1B - Pass Details

Date: 29 November 2023
Orbit: 962 x 1209 km, 28.3° (Epoch: 23 February)

Event Time Altitude Azimuth Distance (km) Brightness Sun altitude
Rises 12:56:27 0° 232° (SW) 3,630 11.3 22.2°
Reaches altitude 10° 13:00:04 10° 213° (SSW) 2,684 11.4 22.1°
Maximum altitude 13:04:01 17° 175° (S) 2,229 11.0 21.9°
Drops below altitude 10° 13:08:01 10° 136° (SE) 2,722 10.3 21.7°
Sets 13:11:42 0° 117° (ESE) 3,705 10.7 21.5°
